timestamp,wind_dir_avg,wind_spd_avg,wind_spd_max_dir,wind_spd_gust,battery_voltage,lat,long
2023-09-05 00:04:00+00:00,33.0,2.71,34.0,2.84,12.49,47.59359,-54.27349
2023-09-05 00:14:01+00:00,5.0,3.0,4.0,3.39,12.49,47.59359,-54.27349
2023-09-05 00:24:01+00:00,29.0,2.3,33.0,2.65,12.49,47.59359,-54.27349
2023-09-05 00:34:01+00:00,33.0,4.01,36.0,4.36,12.49,47.59359,-54.27349
2023-09-05 00:44:01+00:00,41.0,2.33,38.0,2.6,12.49,47.59359,-54.27349
2023-09-05 00:54:01+00:00,79.0,2.81,79.0,3.61,12.49,47.59359,-54.27349
2023-09-05 01:04:01+00:00,59.0,3.76,59.0,4.1,12.49,47.59359,-54.27349
2023-09-05 01:14:00+00:00,79.0,2.84,78.0,3.58,12.41,47.59359,-54.27349
2023-09-05 01:24:00+00:00,92.0,1.91,83.0,2.78,12.41,47.59359,-54.27349
2023-09-05 01:34:00+00:00,92.0,2.5,92.0,4.18,12.41,47.59359,-54.27349
2023-09-05 01:44:00+00:00,57.0,2.83,54.0,3.26,12.41,47.59359,-54.27349
2023-09-05 01:54:00+00:00,48.0,4.55,49.0,5.05,12.41,47.59359,-54.27349
2023-09-05 02:04:00+00:00,48.0,4.9,51.0,5.33,12.41,47.59359,-54.27349
2023-09-05 02:14:01+00:00,49.0,5.15,49.0,5.64,12.41,47.59359,-54.27349
2023-09-05 02:24:01+00:00,54.0,5.86,50.0,6.74,12.41,47.59359,-54.27349
2023-09-05 02:34:01+00:00,54.0,5.93,57.0,6.93,12.41,47.59359,-54.27349
2023-09-05 02:44:01+00:00,54.0,6.61,54.0,7.24,12.41,47.59359,-54.27349
2023-09-05 02:54:01+00:00,55.0,6.61,57.0,7.28,12.41,47.59359,-54.27349
2023-09-05 03:04:01+00:00,48.0,7.08,47.0,8.05,12.41,47.59359,-54.27349
2023-09-05 03:14:01+00:00,56.0,7.21,56.0,7.82,12.41,47.59359,-54.27349
2023-09-05 03:24:01+00:00,63.0,5.83,64.0,6.62,12.41,47.59359,-54.27349
2023-09-05 03:34:01+00:00,64.0,5.14,62.0,6.27,12.41,47.59359,-54.27349
2023-09-05 03:44:01+00:00,59.0,6.54,57.0,7.02,12.41,47.59359,-54.27349
2023-09-05 03:54:01+00:00,64.0,6.89,61.0,7.64,12.41,47.59359,-54.27349
2023-09-05 04:04:01+00:00,55.0,8.06,54.0,8.78,12.41,47.59359,-54.27349
2023-09-05 04:14:01+00:00,63.0,6.72,60.0,7.79,12.41,47.59359,-54.27349
2023-09-05 04:24:01+00:00,62.0,7.71,58.0,8.71,12.41,47.59359,-54.27349
2023-09-05 04:34:01+00:00,56.0,7.76,55.0,8.87,12.41,47.59359,-54.27349
2023-09-05 04:44:01+00:00,47.0,7.8,46.0,8.84,12.41,47.59359,-54.27349
2023-09-05 04:54:01+00:00,63.0,7.7,61.0,8.69,12.41,47.59359,-54.27349
2023-09-05 05:04:01+00:00,60.0,7.7,59.0,8.53,12.41,47.59359,-54.27349
2023-09-05 05:14:00+00:00,56.0,7.43,53.0,8.75,12.41,47.59359,-54.27349
2023-09-05 05:24:00+00:00,61.0,7.21,63.0,8.09,12.41,47.59359,-54.27349
2023-09-05 05:34:00+00:00,63.0,6.42,58.0,7.68,12.41,47.59359,-54.27349
2023-09-05 05:44:00+00:00,53.0,8.27,51.0,9.15,12.41,47.59359,-54.27349
2023-09-05 05:54:00+00:00,54.0,8.53,55.0,9.35,12.41,47.59359,-54.27349
2023-09-05 06:04:00+00:00,50.0,8.15,52.0,9.14,12.41,47.59359,-54.27349
2023-09-05 06:14:00+00:00,52.0,7.73,51.0,8.57,12.33,47.59359,-54.27349
2023-09-05 06:24:00+00:00,45.0,7.54,47.0,8.36,12.33,47.59359,-54.27349
2023-09-05 06:34:00+00:00,49.0,8.75,40.0,9.85,12.33,47.59359,-54.27349
2023-09-05 06:44:00+00:00,43.0,9.44,44.0,10.28,12.33,47.59359,-54.27349
2023-09-05 06:54:00+00:00,43.0,8.5,47.0,9.51,12.33,47.59359,-54.27349
2023-09-05 07:04:00+00:00,48.0,9.17,45.0,10.28,12.33,47.59359,-54.27349
2023-09-05 07:14:01+00:00,46.0,9.72,44.0,10.33,12.33,47.59359,-54.27349
2023-09-05 07:24:01+00:00,50.0,9.28,47.0,10.19,12.33,47.59359,-54.27349
2023-09-05 07:34:01+00:00,54.0,8.84,51.0,9.73,12.33,47.59359,-54.27349
2023-09-05 07:44:01+00:00,49.0,9.63,46.0,10.96,12.33,47.59359,-54.27349
2023-09-05 07:54:01+00:00,45.0,10.78,45.0,11.69,12.33,47.59359,-54.27349
2023-09-05 08:04:01+00:00,40.0,10.7,40.0,11.84,12.33,47.59359,-54.27349
2023-09-05 08:14:00+00:00,39.0,10.78,38.0,11.72,12.33,47.59359,-54.27349
2023-09-05 08:24:00+00:00,35.0,11.7,35.0,12.42,12.33,47.59359,-54.27349
2023-09-05 08:34:00+00:00,45.0,10.48,46.0,11.9,12.33,47.59359,-54.27349
2023-09-05 08:44:00+00:00,45.0,10.31,39.0,11.92,12.33,47.59359,-54.27349
2023-09-05 08:54:00+00:00,43.0,11.48,44.0,12.73,12.33,47.59359,-54.27349
2023-09-05 09:04:00+00:00,49.0,11.6,48.0,12.89,12.33,47.59359,-54.27349
2023-09-05 09:14:00+00:00,42.0,11.8,42.0,13.28,12.25,47.59359,-54.27349
2023-09-05 09:24:00+00:00,47.0,10.75,46.0,11.86,12.25,47.59359,-54.27349
2023-09-05 09:34:00+00:00,44.0,9.74,43.0,10.92,12.25,47.59359,-54.27349
2023-09-05 09:44:00+00:00,49.0,10.97,50.0,13.09,12.25,47.59359,-54.27349
2023-09-05 09:54:00+00:00,41.0,9.64,46.0,11.78,12.25,47.59359,-54.27349
2023-09-05 10:04:00+00:00,44.0,9.31,43.0,10.13,12.25,47.59359,-54.27349
2023-09-05 10:14:00+00:00,52.0,8.01,49.0,9.45,13.21,47.59359,-54.27349
2023-09-05 10:24:00+00:00,49.0,8.59,49.0,9.75,13.21,47.59359,-54.27349
2023-09-05 10:34:00+00:00,49.0,8.48,43.0,9.66,13.21,47.59359,-54.27349
2023-09-05 10:44:00+00:00,49.0,7.91,49.0,9.1,13.21,47.59359,-54.27349
2023-09-05 10:54:00+00:00,57.0,8.03,58.0,9.07,13.21,47.59359,-54.27349
2023-09-05 11:04:00+00:00,60.0,6.72,58.0,7.41,13.21,47.59359,-54.27349
2023-09-05 11:14:00+00:00,69.0,8.29,73.0,9.63,12.89,47.59359,-54.27349
2023-09-05 11:24:00+00:00,74.0,7.07,67.0,8.61,12.89,47.59359,-54.27349
2023-09-05 11:34:00+00:00,68.0,7.96,59.0,9.22,12.89,47.59359,-54.27349
2023-09-05 11:44:00+00:00,69.0,7.63,67.0,8.09,12.89,47.59359,-54.27349
2023-09-05 11:54:00+00:00,66.0,6.84,65.0,7.7,12.89,47.59359,-54.27349
2023-09-05 12:04:00+00:00,66.0,7.18,68.0,8.61,12.89,47.59359,-54.27349
2023-09-05 12:14:00+00:00,62.0,8.03,57.0,9.46,13.6,47.59359,-54.27349
2023-09-05 12:24:00+00:00,54.0,7.58,53.0,8.35,13.6,47.59359,-54.27349
2023-09-05 12:34:00+00:00,58.0,8.88,56.0,9.54,13.6,47.59359,-54.27349
2023-09-05 12:44:00+00:00,56.0,8.37,55.0,9.02,13.6,47.59359,-54.27349
2023-09-05 12:54:00+00:00,53.0,8.25,56.0,8.93,13.6,47.59359,-54.27349
2023-09-05 13:04:00+00:00,49.0,9.36,47.0,10.06,13.6,47.59359,-54.27349
2023-09-05 13:14:01+00:00,52.0,8.68,51.0,9.69,13.68,47.59359,-54.27349
2023-09-05 13:24:01+00:00,57.0,8.81,58.0,9.48,13.68,47.59359,-54.27349
2023-09-05 13:34:01+00:00,62.0,8.0,60.0,8.96,13.68,47.59359,-54.27349
2023-09-05 13:44:01+00:00,60.0,7.24,58.0,8.32,13.68,47.59359,-54.27349
2023-09-05 13:54:01+00:00,56.0,7.58,58.0,8.25,13.68,47.59359,-54.27349
2023-09-05 14:04:01+00:00,58.0,7.09,56.0,7.8,13.68,47.59359,-54.27349
2023-09-05 14:14:00+00:00,54.0,7.57,55.0,8.58,13.76,47.59359,-54.27349
2023-09-05 14:24:00+00:00,59.0,9.19,58.0,9.57,13.76,47.59359,-54.27349
2023-09-05 14:34:00+00:00,60.0,7.8,58.0,8.5,13.76,47.59359,-54.27349
2023-09-05 14:44:00+00:00,47.0,5.92,50.0,7.05,13.76,47.59359,-54.27349
2023-09-05 14:54:00+00:00,32.0,5.74,27.0,6.41,13.76,47.59359,-54.27349
2023-09-05 15:04:00+00:00,40.0,6.83,42.0,7.33,13.76,47.59359,-54.27349
2023-09-05 15:14:00+00:00,52.0,6.7,54.0,7.21,14.32,47.59359,-54.27349
2023-09-05 15:24:00+00:00,55.0,5.8,54.0,6.56,14.32,47.59359,-54.27349
2023-09-05 15:34:00+00:00,52.0,6.51,51.0,7.19,14.32,47.59359,-54.27349
2023-09-05 15:44:00+00:00,52.0,6.74,51.0,7.54,14.32,47.59359,-54.27349
2023-09-05 15:54:00+00:00,53.0,6.75,56.0,7.53,14.32,47.59359,-54.27349
2023-09-05 16:04:00+00:00,54.0,6.37,57.0,7.1,14.32,47.59359,-54.27349
2023-09-05 16:14:00+00:00,53.0,6.81,53.0,7.33,14.08,47.59359,-54.27349
2023-09-05 16:24:00+00:00,55.0,6.39,59.0,7.0,14.08,47.59359,-54.27349
2023-09-05 16:34:00+00:00,46.0,6.89,47.0,7.86,14.08,47.59359,-54.27349
2023-09-05 16:44:00+00:00,42.0,7.7,42.0,8.64,14.08,47.59359,-54.27349
2023-09-05 16:54:00+00:00,43.0,7.6,45.0,8.61,14.08,47.59359,-54.27349
2023-09-05 17:04:00+00:00,48.0,6.03,50.0,6.65,14.08,47.59359,-54.27349
2023-09-05 17:14:00+00:00,42.0,6.2,45.0,7.04,13.68,47.59359,-54.27349
2023-09-05 17:24:00+00:00,45.0,6.79,40.0,8.61,13.68,47.59359,-54.27349
2023-09-05 17:34:00+00:00,34.0,6.34,33.0,6.88,13.68,47.59359,-54.27349
2023-09-05 17:44:00+00:00,42.0,8.08,47.0,9.11,13.68,47.59359,-54.27349
2023-09-05 17:54:00+00:00,46.0,7.66,49.0,8.48,13.68,47.59359,-54.27349
2023-09-05 18:04:00+00:00,44.0,7.14,45.0,7.81,13.68,47.59359,-54.27349
2023-09-05 18:14:00+00:00,45.0,6.46,45.0,7.43,13.68,47.59359,-54.27349
2023-09-05 18:24:00+00:00,41.0,6.87,43.0,7.38,13.68,47.59359,-54.27349
2023-09-05 18:34:00+00:00,39.0,6.69,37.0,7.45,13.68,47.59359,-54.27349
2023-09-05 18:44:00+00:00,40.0,7.38,40.0,8.02,13.68,47.59359,-54.27349
2023-09-05 18:54:00+00:00,44.0,6.63,46.0,8.15,13.68,47.59359,-54.27349
2023-09-05 19:04:00+00:00,48.0,7.96,46.0,8.98,13.68,47.59359,-54.27349
2023-09-05 19:14:00+00:00,47.0,8.27,47.0,9.19,13.6,47.59359,-54.27349
2023-09-05 19:24:00+00:00,52.0,7.53,54.0,8.88,13.6,47.59359,-54.27349
2023-09-05 19:34:00+00:00,48.0,8.02,50.0,8.94,13.6,47.59359,-54.27349
2023-09-05 19:44:00+00:00,52.0,7.32,52.0,8.29,13.6,47.59359,-54.27349
2023-09-05 19:54:00+00:00,51.0,7.1,50.0,7.88,13.6,47.59359,-54.27349
2023-09-05 20:04:00+00:00,50.0,6.65,48.0,8.0,13.6,47.59359,-54.27349
2023-09-05 20:14:01+00:00,54.0,6.75,52.0,7.51,13.6,47.59359,-54.27349
2023-09-05 20:24:01+00:00,54.0,6.54,56.0,7.55,13.6,47.59359,-54.27349
2023-09-05 20:34:01+00:00,52.0,6.6,51.0,7.37,13.6,47.59359,-54.27349
2023-09-05 20:44:01+00:00,53.0,6.07,52.0,6.62,13.6,47.59359,-54.27349
2023-09-05 20:54:01+00:00,53.0,5.92,51.0,7.0,13.6,47.59359,-54.27349
2023-09-05 21:04:01+00:00,53.0,5.79,48.0,6.67,13.6,47.59359,-54.27349
2023-09-05 21:14:00+00:00,52.0,5.09,47.0,5.95,13.13,47.59359,-54.27349
2023-09-05 21:24:00+00:00,50.0,5.22,47.0,5.9,13.13,47.59359,-54.27349
2023-09-05 21:34:00+00:00,49.0,5.93,45.0,6.51,13.13,47.59359,-54.27349
2023-09-05 21:44:00+00:00,45.0,5.13,41.0,5.86,13.13,47.59359,-54.27349
2023-09-05 21:54:00+00:00,43.0,5.12,44.0,5.7,13.13,47.59359,-54.27349
2023-09-05 22:04:00+00:00,43.0,4.94,45.0,5.33,13.13,47.59359,-54.27349
2023-09-05 22:14:00+00:00,38.0,4.43,35.0,4.85,12.65,47.59359,-54.27349
2023-09-05 22:24:00+00:00,37.0,4.94,35.0,5.88,12.65,47.59359,-54.27349
2023-09-05 22:34:00+00:00,35.0,6.42,35.0,7.41,12.65,47.59359,-54.27349
2023-09-05 22:44:00+00:00,39.0,6.46,37.0,7.19,12.65,47.59359,-54.27349
2023-09-05 22:54:00+00:00,45.0,6.43,43.0,7.62,12.65,47.59359,-54.27349
2023-09-05 23:04:00+00:00,45.0,6.26,44.0,7.19,12.65,47.59359,-54.27349
2023-09-05 23:14:00+00:00,44.0,6.06,45.0,6.96,12.49,47.59359,-54.27349
2023-09-05 23:24:00+00:00,47.0,6.31,42.0,7.07,12.49,47.59359,-54.27349
2023-09-05 23:34:00+00:00,43.0,7.32,45.0,7.92,12.49,47.59359,-54.27349
2023-09-05 23:44:00+00:00,46.0,6.1,48.0,6.91,12.49,47.59359,-54.27349
2023-09-05 23:54:00+00:00,44.0,7.03,48.0,7.69,12.49,47.59359,-54.27349
